TimePDT,TemperatureF,Dew PointF,Humidity,Sea Level PressureIn,VisibilityMPH,Wind Direction,Wind SpeedMPH,Gust SpeedMPH,PrecipitationIn,Events,Conditions,WindDirDegrees,DateUTC
12:53 AM,53.1,45.0,74,30.02,10.0,South,4.6,-,N/A,,Scattered Clouds,170,2013-10-08 07:53:00
1:53 AM,53.1,45.0,74,30.01,10.0,SSE,6.9,-,N/A,,Clear,160,2013-10-08 08:53:00
2:53 AM,53.1,45.0,74,30.01,10.0,SSE,6.9,-,N/A,,Partly Cloudy,150,2013-10-08 09:53:00
3:00 AM,53.6,44.6,72,30.01,10.0,SSE,6.9,-,N/A,,Mostly Cloudy,150,2013-10-08 10:00:00
3:53 AM,53.1,45.0,74,30.00,10.0,SSE,6.9,-,N/A,,Mostly Cloudy,160,2013-10-08 10:53:00
4:53 AM,54.0,44.1,69,30.00,10.0,South,6.9,-,N/A,,Overcast,170,2013-10-08 11:53:00
5:53 AM,54.0,45.0,72,29.99,10.0,South,5.8,-,N/A,,Overcast,170,2013-10-08 12:53:00
6:53 AM,53.1,45.0,74,29.99,10.0,SSW,3.5,-,N/A,,Overcast,210,2013-10-08 13:53:00
7:53 AM,53.1,45.0,74,29.99,10.0,South,4.6,-,N/A,,Mostly Cloudy,170,2013-10-08 14:53:00
8:53 AM,54.0,45.0,72,29.98,10.0,SW,3.5,-,N/A,,Mostly Cloudy,230,2013-10-08 15:53:00
9:53 AM,55.0,45.0,69,29.98,10.0,ESE,3.5,-,N/A,,Overcast,120,2013-10-08 16:53:00
10:48 AM,53.6,44.6,72,29.98,2.5,Variable,3.5,-,0.05,Rain-Thunderstorm,Heavy Thunderstorms and Rain,0,2013-10-08 17:48:00
10:53 AM,52.0,43.0,71,30.00,10.0,Variable,3.5,18.4,0.21,Rain-Thunderstorm,Heavy Thunderstorms and Rain,0,2013-10-08 17:53:00
10:55 AM,51.8,41.0,67,30.00,3.0,SE,6.9,18.4,0.03,Rain-Thunderstorm,Heavy Thunderstorms and Rain,140,2013-10-08 17:55:00
11:00 AM,50.0,39.2,66,29.99,7.0,Calm,Calm,-,0.05,Rain-Thunderstorm,Thunderstorms and Rain,0,2013-10-08 18:00:00
11:50 AM,51.8,44.6,76,30.00,10.0,ENE,3.5,-,0.12,Rain-Thunderstorm,Light Rain,70,2013-10-08 18:50:00
11:53 AM,51.1,46.0,83,29.99,10.0,East,5.8,-,0.12,Rain-Thunderstorm,Light Rain,100,2013-10-08 18:53:00
12:53 PM,54.0,46.9,77,29.99,10.0,East,5.8,-,0.00,Thunderstorm,Mostly Cloudy,100,2013-10-08 19:53:00
12:55 PM,53.6,46.4,77,29.99,10.0,East,9.2,-,N/A,,Mostly Cloudy,100,2013-10-08 19:55:00
1:53 PM,52.0,45.0,77,29.99,10.0,SE,3.5,-,0.06,,Mostly Cloudy,130,2013-10-08 20:53:00
2:53 PM,55.0,45.0,69,29.99,10.0,ESE,3.5,-,N/A,,Scattered Clouds,120,2013-10-08 21:53:00
3:53 PM,55.9,43.0,62,29.99,10.0,Calm,Calm,-,0.00,,Overcast,0,2013-10-08 22:53:00
4:53 PM,57.0,42.1,57,30.00,10.0,NNW,6.9,-,N/A,,Mostly Cloudy,330,2013-10-08 23:53:00
5:53 PM,55.0,39.9,57,30.01,10.0,Variable,4.6,-,N/A,,Mostly Cloudy,0,2013-10-09 00:53:00
6:53 PM,53.1,42.1,66,30.03,10.0,Variable,4.6,-,N/A,,Scattered Clouds,0,2013-10-09 01:53:00
7:53 PM,52.0,41.0,66,30.04,10.0,North,3.5,-,N/A,,Partly Cloudy,10,2013-10-09 02:53:00
8:53 PM,52.0,42.1,69,30.05,10.0,Calm,Calm,-,N/A,,Mostly Cloudy,0,2013-10-09 03:53:00
9:53 PM,50.0,43.0,77,30.07,10.0,Calm,Calm,-,N/A,,Scattered Clouds,0,2013-10-09 04:53:00
10:53 PM,46.9,42.1,83,30.08,10.0,Calm,Calm,-,N/A,,Clear,0,2013-10-09 05:53:00
11:53 PM,46.0,42.1,86,30.09,10.0,Calm,Calm,-,N/A,,Clear,0,2013-10-09 06:53:00